Flag for Switzerland Weather past 2 weeks in Liestal, Basel-Land, Switzerland

Now
61 °F

Light rain. Partly cloudy.


Feels Like: 61 °F
Forecast: 47 / 62 °F
Wind: 7 mph from West

Location: Bale-Mulhouse

Current Time: Sep 21, 2014 at 9:12:29 PM

Latest Report: Sep 21, 2014 at 8:30 PM


Visibility: N/A

Pressure: 30.04 "Hg

Humidity: 94%

Dew point: 59 °F

Location of LiestalLocation

Historic Weather in Liestal — Graph

°F

Liestal temperature yesterday

Maximum temperature yesterday: 77 °F (at 3:00 PM)
Minimum temperature yesterday: 59 °F (at 7:00 AM)
Average temperature yesterday: 65 °F

Past Weeks' High & Low Weather Summary

 TemperatureHumidityPressure
High81 °F (Sep 8, 3:00 PM)100% (Sep 7, 2:30 AM)30.15 "Hg (Sep 7, 2:30 AM)
Low48 °F (Sep 11, 5:30 AM)48% (Sep 7, 6:00 PM)29.83 "Hg (Sep 17, 4:30 PM)
Average63 °F84%29.99 "Hg
* Reported Sep 6 8:00 PM — Sep 21 8:00 PM, Liestal, Weather by CustomWeather, © 2014

Note: Actual official high and low records may vary slightly from our data, if they occured in-between our weather recording intervals... More about our weather records

Advertising

Liestal weather history for previous 24 hours

 ConditionsComfort  
Time TempWeatherWind HumidityBarometerVisibility
8:00 PM
Sep 21
61 °FLight rain. Broken clouds.8 mph94%30.04 "HgN/A
7:30 PM63 °FRain. Partly sunny.8 mph88%30.04 "Hg5 mi
7:00 PM63 °FLight rain. Partly sunny.9 mph88%30.01 "HgN/A
6:30 PM63 °FBroken clouds.8 mph88%30.01 "HgN/A
6:00 PM63 °FSprinkles. Broken clouds.6 mph88%30.01 "HgN/A
5:30 PM63 °FBroken clouds.6 mph88%30.01 "HgN/A
5:00 PM63 °FBroken clouds.7 mph88%30.01 "HgN/A
4:30 PM63 °FBroken clouds.8 mph88%30.01 "HgN/A
4:00 PM63 °FSprinkles. Broken clouds.8 mph88%30.01 "HgN/A
3:30 PM64 °FThundershowers. Broken clouds.6 mph88%30.01 "Hg6 mi
3:00 PM68 °FScattered showers. Broken clouds.12 mph78%30.01 "Hg6 mi
2:30 PM66 °FPartly sunny.9 mph83%30.01 "HgN/A
2:00 PM68 °FScattered showers. Partly sunny.12 mph73%30.01 "HgN/A
1:30 PM70 °FPartly sunny.10 mph69%30.01 "HgN/A
1:00 PM68 °FPartly sunny.9 mph73%30.01 "HgN/A
12:30 PM68 °FPartly sunny.6 mph78%30.04 "HgN/A
12:00 PM68 °FSnow. Cloudy.7 mph73%30.04 "HgN/A
11:30 AM70 °FPartly sunny.9 mph64%30.04 "HgN/A
11:00 AM70 °FScattered clouds.2 mph69%30.04 "HgN/A
10:30 AM66 °FScattered clouds.5 mph78%30.04 "HgN/A
10:00 AM64 °FScattered clouds.3 mph88%30.04 "HgN/A
9:30 AM63 °FPartly sunny.6 mph94%30.04 "HgN/A
9:00 AM63 °FSprinkles. Partly sunny.6 mph94%30.04 "HgN/A
8:30 AM63 °FBroken clouds.3 mph94%30.04 "HgN/A
8:00 AM63 °FSprinkles. Partly cloudy.2 mph88%30.04 "HgN/A
7:30 AM63 °FPartly cloudy.3 mph88%30.04 "HgN/A
7:00 AM63 °FPartly cloudy.2 mph88%30.04 "HgN/A
6:30 AM63 °FPartly cloudy.5 mph94%30.04 "HgN/A
6:00 AM63 °FPassing clouds.3 mph88%30.04 "HgN/A
5:30 AM63 °FPassing clouds.3 mph94%30.01 "HgN/A
5:00 AM63 °FPassing clouds.2 mph94%30.01 "HgN/A
4:30 AM63 °FPassing clouds.3 mph94%30.04 "HgN/A
4:00 AM63 °FMild.6 mph94%30.04 "HgN/A
3:30 AM63 °FThundershowers. Passing clouds.5 mph94%30.04 "HgN/A
3:00 AM63 °FThundershowers. Passing clouds.2 mph94%30.01 "HgN/A
2:30 AM63 °FPassing clouds.2 mph94%30.04 "HgN/A
2:00 AM63 °FPartly cloudy.1 mph94%30.04 "HgN/A
1:30 AM61 °FThundershowers. Mostly cloudy.1 mph100%30.04 "HgN/A
1:00 AM61 °FClear.No wind94%30.04 "HgN/A
12:30 AM61 °FClear.No wind94%30.04 "HgN/A
12:00 AM61 °FPassing clouds.No wind94%30.04 "HgN/A
11:30 PM
Sep 20
59 °FPassing clouds.3 mph100%30.04 "HgN/A
10:30 PM61 °FPassing clouds.2 mph94%30.04 "HgN/A
10:00 PM63 °FClear.3 mph88%30.04 "Hg10 mi
9:30 PM63 °FClear.5 mph88%30.04 "Hg10 mi
9:00 PM64 °FPassing clouds.3 mph83%30.04 "HgN/A
Weather by CustomWeather, © 2014

See weather overviewHow to use our weather pages